Time,TemperatureF,DewpointF,PressureIn,WindDirection,WindDirectionDegrees,WindSpeedMPH,WindSpeedGustMPH,Humidity,HourlyPrecipIn,Conditions,Clouds,dailyrainin,SoftwareType,DateUTC
2013-01-04 00:00:00,22.1,11.4,30.00,WNW,284,4.0,4.0,63,0.00,,,0.00,Wunderground v.1.15,2013-01-04 05:00:00,
2013-01-04 00:10:00,22.2,11.5,30.00,WNW,294,4.0,4.0,63,0.00,,,0.00,Wunderground v.1.15,2013-01-04 05:10:00,
2013-01-04 00:15:00,22.3,11.6,29.99,NW,319,4.0,25.0,63,0.00,,,0.00,Wunderground v.1.15,2013-01-04 05:15:00,
2013-01-04 00:20:00,22.4,11.7,29.99,WNW,303,4.0,4.0,63,0.00,,,0.00,Wunderground v.1.15,2013-01-04 05:20:00,
2013-01-04 00:25:00,22.4,11.7,29.99,West,279,4.0,25.0,63,0.00,,,0.00,Wunderground v.1.15,2013-01-04 05:25:00,
2013-01-04 00:30:00,22.4,11.7,29.99,West,277,4.0,25.0,63,0.00,,,0.00,Wunderground v.1.15,2013-01-04 05:30:00,
2013-01-04 00:35:00,22.4,12.1,29.99,West,277,3.0,25.0,64,0.00,,,0.00,Wunderground v.1.15,2013-01-04 05:35:00,
2013-01-04 00:40:00,22.4,12.1,29.99,WNW,286,4.0,25.0,64,0.00,,,0.00,Wunderground v.1.15,2013-01-04 05:40:00,
2013-01-04 00:45:00,22.4,12.1,29.98,WNW,284,4.0,25.0,64,0.00,,,0.00,Wunderground v.1.15,2013-01-04 05:45:00,
2013-01-04 00:50:00,22.4,12.1,29.98,West,275,3.0,25.0,64,0.00,,,0.00,Wunderground v.1.15,2013-01-04 05:50:00,
2013-01-04 00:55:00,22.3,12.0,29.98,West,275,3.0,25.0,64,0.00,,,0.00,Wunderground v.1.15,2013-01-04 05:55:00,
2013-01-04 01:00:00,22.2,11.9,29.98,West,273,3.0,25.0,64,0.00,,,0.00,Wunderground v.1.15,2013-01-04 06:00:00,
2013-01-04 01:10:00,22.1,12.1,29.98,West,266,4.0,4.0,65,0.00,,,0.00,Wunderground v.1.15,2013-01-04 06:10:00,
2013-01-04 01:15:00,22.1,12.1,29.98,West,267,3.0,25.0,65,0.00,,,0.00,Wunderground v.1.15,2013-01-04 06:15:00,
2013-01-04 01:20:00,21.9,11.9,29.98,WNW,300,3.0,3.0,65,0.00,,,0.00,Wunderground v.1.15,2013-01-04 06:20:00,
2013-01-04 01:25:00,21.8,11.8,29.98,WNW,300,2.0,25.0,65,0.00,,,0.00,Wunderground v.1.15,2013-01-04 06:25:00,
2013-01-04 01:30:00,21.8,12.2,29.98,West,279,3.0,25.0,66,0.00,,,0.00,Wunderground v.1.15,2013-01-04 06:30:00,
2013-01-04 01:35:00,21.8,12.2,29.98,WNW,286,3.0,25.0,66,0.00,,,0.00,Wunderground v.1.15,2013-01-04 06:35:00,
2013-01-04 01:40:00,21.9,12.3,29.98,WNW,286,3.0,25.0,66,0.00,,,0.00,Wunderground v.1.15,2013-01-04 06:40:00,
2013-01-04 01:45:00,21.7,12.1,29.98,NW,305,3.0,25.0,66,0.00,,,0.00,Wunderground v.1.15,2013-01-04 06:45:00,
2013-01-04 01:50:00,22.0,12.7,29.98,WNW,291,5.0,25.0,67,0.00,,,0.00,Wunderground v.1.15,2013-01-04 06:50:00,
2013-01-04 01:55:00,22.0,12.7,29.98,WNW,295,5.0,25.0,67,0.00,,,0.00,Wunderground v.1.15,2013-01-04 06:55:00,
2013-01-04 02:00:00,22.2,12.9,29.98,West,279,5.0,5.0,67,0.00,,,0.00,Wunderground v.1.15,2013-01-04 07:00:00,
2013-01-04 02:05:00,22.4,13.1,29.98,West,279,5.0,25.0,67,0.00,,,0.00,Wunderground v.1.15,2013-01-04 07:05:00,
2013-01-04 02:10:00,22.5,13.2,29.98,WNW,290,4.0,25.0,67,0.00,,,0.00,Wunderground v.1.15,2013-01-04 07:10:00,
2013-01-04 02:20:00,22.6,13.3,29.98,WNW,288,3.0,25.0,67,0.00,,,0.00,Wunderground v.1.15,2013-01-04 07:20:00,
2013-01-04 02:30:00,22.6,13.3,29.98,WNW,284,4.0,25.0,67,0.00,,,0.00,Wunderground v.1.15,2013-01-04 07:30:00,
2013-01-04 02:35:00,22.8,13.5,29.98,WNW,296,4.0,25.0,67,0.00,,,0.00,Wunderground v.1.15,2013-01-04 07:35:00,
2013-01-04 02:40:00,23.0,15.6,29.98,NW,306,5.0,5.0,73,0.00,,,0.00,Wunderground v.1.15,2013-01-04 07:40:00,
2013-01-04 02:45:00,23.2,13.9,29.98,WNW,290,5.0,25.0,67,0.00,,,0.00,Wunderground v.1.15,2013-01-04 07:45:00,
2013-01-04 02:55:00,23.5,14.1,29.97,WNW,288,6.0,25.0,67,0.00,,,0.00,Wunderground v.1.15,2013-01-04 07:55:00,
2013-01-04 03:00:00,23.7,14.3,29.97,West,277,6.0,6.0,67,0.00,,,0.00,Wunderground v.1.15,2013-01-04 08:00:00,
2013-01-04 03:05:00,23.6,14.2,29.97,WNW,286,6.0,7.0,67,0.00,,,0.00,Wunderground v.1.15,2013-01-04 08:05:00,
2013-01-04 03:10:00,23.3,14.0,29.97,WNW,284,5.0,25.0,67,0.00,,,0.00,Wunderground v.1.15,2013-01-04 08:10:00,
2013-01-04 03:15:00,23.2,13.9,29.97,WNW,284,5.0,25.0,67,0.00,,,0.00,Wunderground v.1.15,2013-01-04 08:15:00,
2013-01-04 03:20:00,23.2,13.9,29.97,WNW,284,5.0,5.0,67,0.00,,,0.00,Wunderground v.1.15,2013-01-04 08:20:00,
2013-01-04 03:25:00,23.1,13.8,29.97,West,276,5.0,6.0,67,0.00,,,0.00,Wunderground v.1.15,2013-01-04 08:25:00,
2013-01-04 03:30:00,23.1,14.1,29.96,NW,319,4.0,4.0,68,0.00,,,0.00,Wunderground v.1.15,2013-01-04 08:30:00,
2013-01-04 03:35:00,23.1,14.4,29.96,West,281,5.0,5.0,69,0.00,,,0.00,Wunderground v.1.15,2013-01-04 08:35:00,
2013-01-04 03:40:00,23.3,14.6,29.96,WNW,296,4.0,25.0,69,0.00,,,0.00,Wunderground v.1.15,2013-01-04 08:40:00,
2013-01-04 03:45:00,23.4,14.7,29.96,WNW,299,4.0,25.0,69,0.00,,,0.00,Wunderground v.1.15,2013-01-04 08:45:00,
2013-01-04 03:50:00,23.6,14.9,29.95,WNW,296,5.0,5.0,69,0.00,,,0.00,Wunderground v.1.15,2013-01-04 08:50:00,
2013-01-04 03:55:00,23.9,15.2,29.95,NNW,329,5.0,6.0,69,0.00,,,0.00,Wunderground v.1.15,2013-01-04 08:55:00,
2013-01-04 04:00:00,24.2,15.5,29.95,NW,321,6.0,25.0,69,0.00,,,0.00,Wunderground v.1.15,2013-01-04 09:00:00,
2013-01-04 04:05:00,24.6,15.9,29.95,NNW,331,7.0,25.0,69,0.00,,,0.00,Wunderground v.1.15,2013-01-04 09:05:00,
2013-01-04 04:10:00,24.7,15.6,29.95,WNW,290,9.0,25.0,68,0.00,,,0.00,Wunderground v.1.15,2013-01-04 09:10:00,
2013-01-04 04:15:00,24.6,15.5,29.95,NNW,336,9.0,25.0,68,0.00,,,0.00,Wunderground v.1.15,2013-01-04 09:15:00,
2013-01-04 04:25:00,24.5,15.8,29.95,WNW,297,6.0,25.0,69,0.00,,,0.00,Wunderground v.1.15,2013-01-04 09:25:00,
2013-01-04 04:30:00,24.5,15.8,29.95,WNW,302,5.0,25.0,69,0.00,,,0.00,Wunderground v.1.15,2013-01-04 09:30:00,
2013-01-04 04:35:00,24.4,15.7,29.95,WNW,287,6.0,25.0,69,0.00,,,0.00,Wunderground v.1.15,2013-01-04 09:35:00,
2013-01-04 04:40:00,24.3,15.6,29.95,WNW,290,6.0,6.0,69,0.00,,,0.00,Wunderground v.1.15,2013-01-04 09:40:00,
2013-01-04 04:45:00,24.0,15.3,29.95,West,266,5.0,25.0,69,0.00,,,0.00,Wunderground v.1.15,2013-01-04 09:45:00,
2013-01-04 04:50:00,23.5,15.1,29.95,WNW,288,4.0,25.0,70,0.00,,,0.00,Wunderground v.1.15,2013-01-04 09:50:00,
2013-01-04 04:55:00,23.1,15.1,29.95,West,275,5.0,25.0,71,0.00,,,0.00,Wunderground v.1.15,2013-01-04 09:55:00,
2013-01-04 05:00:00,23.0,15.0,29.96,WNW,287,6.0,25.0,71,0.00,,,0.00,Wunderground v.1.15,2013-01-04 10:00:00,
2013-01-04 05:05:00,23.1,15.4,29.96,WNW,288,6.0,25.0,72,0.00,,,0.00,Wunderground v.1.15,2013-01-04 10:05:00,
2013-01-04 05:10:00,23.1,15.4,29.96,NW,317,5.0,5.0,72,0.00,,,0.00,Wunderground v.1.15,2013-01-04 10:10:00,
2013-01-04 05:15:00,23.3,15.9,29.96,WNW,300,6.0,6.0,73,0.00,,,0.00,Wunderground v.1.15,2013-01-04 10:15:00,
2013-01-04 05:25:00,23.5,16.1,29.96,WNW,289,5.0,25.0,73,0.00,,,0.00,Wunderground v.1.15,2013-01-04 10:25:00,
2013-01-04 05:30:00,23.8,16.4,29.96,WNW,298,6.0,6.0,73,0.00,,,0.00,Wunderground v.1.15,2013-01-04 10:30:00,
2013-01-04 05:35:00,24.0,16.6,29.96,WNW,291,6.0,25.0,73,0.00,,,0.00,Wunderground v.1.15,2013-01-04 10:35:00,
2013-01-04 05:40:00,24.1,16.7,29.96,WNW,284,5.0,25.0,73,0.00,,,0.00,Wunderground v.1.15,2013-01-04 10:40:00,
2013-01-04 05:50:00,24.5,17.1,29.96,West,279,6.0,6.0,73,0.00,,,0.00,Wunderground v.1.15,2013-01-04 10:50:00,
2013-01-04 05:55:00,24.6,17.2,29.96,WNW,289,7.0,7.0,73,0.00,,,0.00,Wunderground v.1.15,2013-01-04 10:55:00,
2013-01-04 06:00:00,24.6,16.9,29.96,West,279,7.0,25.0,72,0.00,,,0.00,Wunderground v.1.15,2013-01-04 11:00:00,
2013-01-04 06:05:00,24.4,17.0,29.95,WNW,290,7.0,25.0,73,0.00,,,0.00,Wunderground v.1.15,2013-01-04 11:05:00,
2013-01-04 06:10:00,24.4,17.0,29.96,NW,309,7.0,7.0,73,0.00,,,0.00,Wunderground v.1.15,2013-01-04 11:10:00,
2013-01-04 06:15:00,24.4,17.0,29.96,WNW,295,6.0,8.0,73,0.00,,,0.00,Wunderground v.1.15,2013-01-04 11:15:00,
2013-01-04 06:20:00,24.5,17.1,29.96,WNW,300,6.0,25.0,73,0.00,,,0.00,Wunderground v.1.15,2013-01-04 11:20:00,
2013-01-04 06:25:00,24.6,17.5,29.96,WNW,296,6.0,25.0,74,0.00,,,0.00,Wunderground v.1.15,2013-01-04 11:25:00,
2013-01-04 06:30:00,24.8,17.7,29.96,WNW,299,6.0,6.0,74,0.00,,,0.00,Wunderground v.1.15,2013-01-04 11:30:00,
2013-01-04 06:35:00,25.2,18.1,29.96,WNW,294,6.0,25.0,74,0.00,,,0.00,Wunderground v.1.15,2013-01-04 11:35:00,
2013-01-04 06:40:00,25.4,18.3,29.96,WNW,288,7.0,25.0,74,0.00,,,0.00,Wunderground v.1.15,2013-01-04 11:40:00,
2013-01-04 06:45:00,25.6,18.5,29.96,NW,322,7.0,25.0,74,0.00,,,0.00,Wunderground v.1.15,2013-01-04 11:45:00,
2013-01-04 06:50:00,25.7,18.6,29.96,WNW,296,7.0,25.0,74,0.00,,,0.00,Wunderground v.1.15,2013-01-04 11:50:00,
2013-01-04 06:55:00,25.8,18.7,29.96,WNW,302,7.0,25.0,74,0.00,,,0.00,Wunderground v.1.15,2013-01-04 11:55:00,
2013-01-04 07:00:00,25.8,18.3,29.97,WNW,302,6.0,25.0,73,0.00,,,0.00,Wunderground v.1.15,2013-01-04 12:00:00,
2013-01-04 07:05:00,25.9,18.4,29.97,West,269,7.0,25.0,73,0.00,,,0.00,Wunderground v.1.15,2013-01-04 12:05:00,
2013-01-04 07:10:00,26.0,18.5,29.97,WNW,290,7.0,25.0,73,0.00,,,0.00,Wunderground v.1.15,2013-01-04 12:10:00,
2013-01-04 07:15:00,25.9,18.4,29.97,NW,311,7.0,25.0,73,0.00,,,0.00,Wunderground v.1.15,2013-01-04 12:15:00,
2013-01-04 07:20:00,26.0,18.8,29.97,NNW,333,8.0,8.0,74,0.00,,,0.00,Wunderground v.1.15,2013-01-04 12:20:00,
2013-01-04 07:25:00,26.3,19.1,29.97,WNW,299,8.0,25.0,74,0.00,,,0.00,Wunderground v.1.15,2013-01-04 12:25:00,
2013-01-04 07:30:00,26.4,19.2,29.97,WNW,296,8.0,8.0,74,0.00,,,0.00,Wunderground v.1.15,2013-01-04 12:30:00,
2013-01-04 07:35:00,26.5,19.0,29.97,NW,304,7.0,25.0,73,0.00,,,0.00,Wunderground v.1.15,2013-01-04 12:35:00,
2013-01-04 07:40:00,26.5,19.3,29.97,WNW,291,6.0,25.0,74,0.00,,,0.00,Wunderground v.1.15,2013-01-04 12:40:00,
2013-01-04 07:45:00,26.8,19.3,29.97,NW,314,8.0,25.0,73,0.00,,,0.00,Wunderground v.1.15,2013-01-04 12:45:00,
2013-01-04 07:50:00,26.8,19.3,29.97,NW,315,9.0,9.0,73,0.00,,,0.00,Wunderground v.1.15,2013-01-04 12:50:00,
2013-01-04 07:55:00,26.7,19.2,29.97,WNW,296,7.0,25.0,73,0.00,,,0.00,Wunderground v.1.15,2013-01-04 12:55:00,
2013-01-04 08:00:00,26.7,19.2,29.98,NW,308,7.0,7.0,73,0.00,,,0.00,Wunderground v.1.15,2013-01-04 13:00:00,
2013-01-04 08:05:00,26.7,19.2,29.98,WNW,298,8.0,8.0,73,0.00,,,0.00,Wunderground v.1.15,2013-01-04 13:05:00,
2013-01-04 08:10:00,26.8,19.3,29.98,NW,305,7.0,7.0,73,0.00,,,0.00,Wunderground v.1.15,2013-01-04 13:10:00,
2013-01-04 08:15:00,26.8,19.3,29.98,West,265,7.0,10.0,73,0.00,,,0.00,Wunderground v.1.15,2013-01-04 13:15:00,
2013-01-04 08:20:00,27.1,19.6,29.98,NNW,327,8.0,8.0,73,0.00,,,0.00,Wunderground v.1.15,2013-01-04 13:20:00,
2013-01-04 08:25:00,27.3,19.8,29.98,WNW,284,8.0,25.0,73,0.00,,,0.00,Wunderground v.1.15,2013-01-04 13:25:00,
2013-01-04 08:30:00,27.5,20.0,29.97,WNW,297,8.0,25.0,73,0.00,,,0.00,Wunderground v.1.15,2013-01-04 13:30:00,
2013-01-04 08:35:00,27.7,19.8,29.97,NW,304,9.0,25.0,72,0.00,,,0.00,Wunderground v.1.15,2013-01-04 13:35:00,
2013-01-04 08:40:00,28.0,20.1,29.98,WNW,288,9.0,9.0,72,0.00,,,0.00,Wunderground v.1.15,2013-01-04 13:40:00,
2013-01-04 08:45:00,28.4,20.5,29.97,WNW,298,8.0,25.0,72,0.00,,,0.00,Wunderground v.1.15,2013-01-04 13:45:00,
2013-01-04 08:50:00,28.8,20.9,29.97,West,263,9.0,9.0,72,0.00,,,0.00,Wunderground v.1.15,2013-01-04 13:50:00,
2013-01-04 08:55:00,29.0,20.8,29.97,WNW,295,9.0,25.0,71,0.00,,,0.00,Wunderground v.1.15,2013-01-04 13:55:00,
2013-01-04 09:00:00,29.2,21.0,29.97,WNW,303,7.0,25.0,71,0.00,,,0.00,Wunderground v.1.15,2013-01-04 14:00:00,
2013-01-04 09:05:00,29.3,21.1,29.97,NW,323,8.0,25.0,71,0.00,,,0.00,Wunderground v.1.15,2013-01-04 14:05:00,
2013-01-04 09:10:00,29.4,20.8,29.96,WNW,290,10.0,10.0,70,0.00,,,0.00,Wunderground v.1.15,2013-01-04 14:10:00,
2013-01-04 09:15:00,29.6,21.0,29.96,WNW,296,10.0,14.0,70,0.00,,,0.00,Wunderground v.1.15,2013-01-04 14:15:00,
2013-01-04 09:20:00,29.7,21.1,29.96,WNW,300,10.0,10.0,70,0.00,,,0.00,Wunderground v.1.15,2013-01-04 14:20:00,
2013-01-04 09:25:00,29.9,21.3,29.96,NW,306,9.0,16.0,70,0.00,,,0.00,Wunderground v.1.15,2013-01-04 14:25:00,
2013-01-04 09:30:00,30.3,21.3,29.96,WNW,302,9.0,9.0,69,0.00,,,0.00,Wunderground v.1.15,2013-01-04 14:30:00,
2013-01-04 09:35:00,30.7,21.4,29.96,NW,311,9.0,25.0,68,0.00,,,0.00,Wunderground v.1.15,2013-01-04 14:35:00,
2013-01-04 09:40:00,31.1,21.8,29.96,WNW,292,9.0,25.0,68,0.00,,,0.00,Wunderground v.1.15,2013-01-04 14:40:00,
2013-01-04 09:45:00,31.4,21.7,29.96,WNW,296,9.0,25.0,67,0.00,,,0.00,Wunderground v.1.15,2013-01-04 14:45:00,
2013-01-04 09:50:00,31.7,21.6,29.96,NW,307,10.0,25.0,66,0.00,,,0.00,Wunderground v.1.15,2013-01-04 14:50:00,
2013-01-04 09:55:00,32.3,21.8,29.96,NW,308,10.0,25.0,65,0.00,,,0.00,Wunderground v.1.15,2013-01-04 14:55:00,
2013-01-04 10:00:00,32.7,21.9,29.96,WNW,288,10.0,25.0,64,0.00,,,0.00,Wunderground v.1.15,2013-01-04 15:00:00,
2013-01-04 10:05:00,33.0,22.1,29.96,West,279,9.0,25.0,64,0.00,,,0.00,Wunderground v.1.15,2013-01-04 15:05:00,
2013-01-04 10:10:00,33.4,22.1,29.95,West,269,10.0,10.0,63,0.00,,,0.00,Wunderground v.1.15,2013-01-04 15:10:00,
2013-01-04 10:15:00,33.7,22.1,29.95,NNW,329,9.0,25.0,62,0.00,,,0.00,Wunderground v.1.15,2013-01-04 15:15:00,
2013-01-04 10:20:00,33.9,21.9,29.95,NNW,331,8.0,8.0,61,0.00,,,0.00,Wunderground v.1.15,2013-01-04 15:20:00,
2013-01-04 10:25:00,34.3,22.2,29.94,NNW,332,8.0,13.0,61,0.00,,,0.00,Wunderground v.1.15,2013-01-04 15:25:00,
2013-01-04 10:30:00,34.5,22.0,29.94,NW,315,9.0,25.0,60,0.00,,,0.00,Wunderground v.1.15,2013-01-04 15:30:00,
2013-01-04 10:35:00,34.4,21.5,29.94,WNW,293,10.0,25.0,59,0.00,,,0.00,Wunderground v.1.15,2013-01-04 15:35:00,
2013-01-04 10:40:00,34.6,21.7,29.94,WNW,288,10.0,10.0,59,0.00,,,0.00,Wunderground v.1.15,2013-01-04 15:40:00,
2013-01-04 10:45:00,35.0,22.1,29.93,WNW,295,8.0,25.0,59,0.00,,,0.00,Wunderground v.1.15,2013-01-04 15:45:00,
2013-01-04 10:55:00,34.9,21.6,29.92,NW,325,11.0,13.0,58,0.00,,,0.00,Wunderground v.1.15,2013-01-04 15:55:00,
2013-01-04 11:00:00,35.0,21.3,29.92,WNW,301,11.0,25.0,57,0.00,,,0.00,Wunderground v.1.15,2013-01-04 16:00:00,
2013-01-04 11:05:00,35.2,21.5,29.92,WNW,286,12.0,25.0,57,0.00,,,0.00,Wunderground v.1.15,2013-01-04 16:05:00,
2013-01-04 11:10:00,35.5,21.3,29.91,WSW,247,11.0,25.0,56,0.00,,,0.00,Wunderground v.1.15,2013-01-04 16:10:00,
2013-01-04 11:20:00,36.2,21.6,29.91,WNW,284,8.0,25.0,55,0.00,,,0.00,Wunderground v.1.15,2013-01-04 16:20:00,
2013-01-04 11:25:00,36.1,21.5,29.90,West,281,9.0,25.0,55,0.00,,,0.00,Wunderground v.1.15,2013-01-04 16:25:00,
2013-01-04 11:30:00,35.9,21.3,29.90,WNW,291,10.0,25.0,55,0.00,,,0.00,Wunderground v.1.15,2013-01-04 16:30:00,
2013-01-04 11:35:00,36.1,21.0,29.90,NNW,341,11.0,25.0,54,0.00,,,0.00,Wunderground v.1.15,2013-01-04 16:35:00,
2013-01-04 11:40:00,36.5,21.4,29.89,NW,319,11.0,25.0,54,0.00,,,0.00,Wunderground v.1.15,2013-01-04 16:40:00,
2013-01-04 11:45:00,36.7,21.6,29.88,NW,306,9.0,25.0,54,0.00,,,0.00,Wunderground v.1.15,2013-01-04 16:45:00,
2013-01-04 11:50:00,36.7,20.7,29.88,WNW,293,12.0,12.0,52,0.00,,,0.00,Wunderground v.1.15,2013-01-04 16:50:00,
2013-01-04 11:55:00,36.5,21.4,29.87,NW,325,14.0,14.0,54,0.00,,,0.00,Wunderground v.1.15,2013-01-04 16:55:00,
2013-01-04 12:00:00,37.0,21.4,29.87,West,279,13.0,13.0,53,0.00,,,0.00,Wunderground v.1.15,2013-01-04 17:00:00,
2013-01-04 12:05:00,36.9,21.3,29.87,WNW,292,13.0,25.0,53,0.00,,,0.00,Wunderground v.1.15,2013-01-04 17:05:00,
2013-01-04 12:10:00,37.1,21.1,29.86,WNW,297,12.0,12.0,52,0.00,,,0.00,Wunderground v.1.15,2013-01-04 17:10:00,
2013-01-04 12:15:00,37.1,21.1,29.86,NW,320,12.0,25.0,52,0.00,,,0.00,Wunderground v.1.15,2013-01-04 17:15:00,
2013-01-04 12:20:00,36.8,21.3,29.85,WNW,292,14.0,25.0,53,0.00,,,0.00,Wunderground v.1.15,2013-01-04 17:20:00,
2013-01-04 12:25:00,36.9,21.3,29.85,WNW,292,14.0,25.0,53,0.00,,,0.00,Wunderground v.1.15,2013-01-04 17:25:00,
2013-01-04 12:30:00,37.2,21.6,29.85,WSW,244,11.0,11.0,53,0.00,,,0.00,Wunderground v.1.15,2013-01-04 17:30:00,
2013-01-04 12:35:00,37.5,21.9,29.85,NW,311,11.0,14.0,53,0.00,,,0.00,Wunderground v.1.15,2013-01-04 17:35:00,
2013-01-04 12:45:00,37.4,21.8,29.84,West,272,12.0,25.0,53,0.00,,,0.00,Wunderground v.1.15,2013-01-04 17:45:00,
2013-01-04 12:50:00,37.5,21.9,29.84,WNW,297,11.0,11.0,53,0.00,,,0.00,Wunderground v.1.15,2013-01-04 17:50:00,
2013-01-04 12:55:00,37.6,22.4,29.84,NW,308,11.0,25.0,54,0.00,,,0.00,Wunderground v.1.15,2013-01-04 17:55:00,
2013-01-04 13:00:00,37.5,21.9,29.83,WNW,300,11.0,25.0,53,0.00,,,0.00,Wunderground v.1.15,2013-01-04 18:00:00,
2013-01-04 13:10:00,37.4,21.8,29.83,NW,314,13.0,13.0,53,0.00,,,0.00,Wunderground v.1.15,2013-01-04 18:10:00,
2013-01-04 13:15:00,37.7,22.1,29.82,West,269,11.0,25.0,53,0.00,,,0.00,Wunderground v.1.15,2013-01-04 18:15:00,
2013-01-04 13:20:00,38.5,22.4,29.82,NW,304,9.0,25.0,52,0.00,,,0.00,Wunderground v.1.15,2013-01-04 18:20:00,
2013-01-04 13:25:00,38.4,22.3,29.82,WNW,283,9.0,25.0,52,0.00,,,0.00,Wunderground v.1.15,2013-01-04 18:25:00,
2013-01-04 13:30:00,38.6,22.5,29.82,West,266,10.0,10.0,52,0.00,,,0.00,Wunderground v.1.15,2013-01-04 18:30:00,
2013-01-04 13:35:00,38.5,22.4,29.82,West,281,10.0,25.0,52,0.00,,,0.00,Wunderground v.1.15,2013-01-04 18:35:00,
2013-01-04 13:40:00,38.8,22.2,29.82,WNW,298,9.0,25.0,51,0.00,,,0.00,Wunderground v.1.15,2013-01-04 18:40:00,
2013-01-04 13:45:00,38.9,22.3,29.82,WNW,289,11.0,25.0,51,0.00,,,0.00,Wunderground v.1.15,2013-01-04 18:45:00,
2013-01-04 13:50:00,38.6,22.0,29.82,NW,309,12.0,25.0,51,0.00,,,0.00,Wunderground v.1.15,2013-01-04 18:50:00,
2013-01-04 13:55:00,38.4,22.3,29.82,West,267,12.0,25.0,52,0.00,,,0.00,Wunderground v.1.15,2013-01-04 18:55:00,
2013-01-04 14:00:00,38.2,22.1,29.82,NW,311,12.0,12.0,52,0.00,,,0.00,Wunderground v.1.15,2013-01-04 19:00:00,
2013-01-04 14:05:00,38.0,22.4,29.82,WNW,302,11.0,25.0,53,0.00,,,0.00,Wunderground v.1.15,2013-01-04 19:05:00,
2013-01-04 14:10:00,37.9,22.3,29.82,WSW,253,10.0,25.0,53,0.00,,,0.00,Wunderground v.1.15,2013-01-04 19:10:00,
2013-01-04 14:15:00,38.0,22.8,29.82,WNW,286,10.0,25.0,54,0.00,,,0.00,Wunderground v.1.15,2013-01-04 19:15:00,
2013-01-04 14:20:00,38.0,22.8,29.82,WNW,284,9.0,25.0,54,0.00,,,0.00,Wunderground v.1.15,2013-01-04 19:20:00,
2013-01-04 14:25:00,37.9,22.7,29.82,West,277,9.0,25.0,54,0.00,,,0.00,Wunderground v.1.15,2013-01-04 19:25:00,
2013-01-04 14:30:00,38.0,22.8,29.81,NW,304,9.0,25.0,54,0.00,,,0.00,Wunderground v.1.15,2013-01-04 19:30:00,
2013-01-04 14:35:00,37.8,23.1,29.82,NW,310,9.0,25.0,55,0.00,,,0.00,Wunderground v.1.15,2013-01-04 19:35:00,
2013-01-04 14:40:00,37.8,23.1,29.82,NNE,32,9.0,9.0,55,0.00,,,0.00,Wunderground v.1.15,2013-01-04 19:40:00,
2013-01-04 14:45:00,37.8,23.1,29.82,NW,306,9.0,25.0,55,0.00,,,0.00,Wunderground v.1.15,2013-01-04 19:45:00,
2013-01-04 14:50:00,37.7,23.0,29.83,WNW,289,10.0,25.0,55,0.00,,,0.00,Wunderground v.1.15,2013-01-04 19:50:00,
2013-01-04 14:55:00,37.7,23.0,29.83,WNW,293,11.0,25.0,55,0.00,,,0.00,Wunderground v.1.15,2013-01-04 19:55:00,
2013-01-04 15:00:00,37.7,23.4,29.83,WNW,298,10.0,10.0,56,0.00,,,0.00,Wunderground v.1.15,2013-01-04 20:00:00,
2013-01-04 15:05:00,37.6,22.9,29.83,WSW,249,10.0,25.0,55,0.00,,,0.00,Wunderground v.1.15,2013-01-04 20:05:00,
2013-01-04 15:10:00,37.8,23.5,29.83,NW,304,10.0,10.0,56,0.00,,,0.00,Wunderground v.1.15,2013-01-04 20:10:00,
2013-01-04 15:15:00,37.8,23.5,29.83,SW,226,9.0,25.0,56,0.00,,,0.00,Wunderground v.1.15,2013-01-04 20:15:00,
2013-01-04 15:20:00,37.8,23.9,29.83,WNW,295,9.0,9.0,57,0.00,,,0.00,Wunderground v.1.15,2013-01-04 20:20:00,
2013-01-04 15:25:00,37.5,23.6,29.83,West,274,9.0,12.0,57,0.00,,,0.00,Wunderground v.1.15,2013-01-04 20:25:00,
2013-01-04 15:30:00,37.4,23.5,29.83,NW,323,11.0,25.0,57,0.00,,,0.00,Wunderground v.1.15,2013-01-04 20:30:00,
2013-01-04 15:35:00,37.2,23.8,29.83,NW,309,11.0,25.0,58,0.00,,,0.00,Wunderground v.1.15,2013-01-04 20:35:00,
2013-01-04 15:40:00,37.1,23.7,29.83,WNW,289,9.0,25.0,58,0.00,,,0.00,Wunderground v.1.15,2013-01-04 20:40:00,
2013-01-04 15:45:00,37.1,23.7,29.83,WNW,302,9.0,25.0,58,0.00,,,0.00,Wunderground v.1.15,2013-01-04 20:45:00,
2013-01-04 15:50:00,37.0,23.6,29.83,WNW,287,10.0,10.0,58,0.00,,,0.00,Wunderground v.1.15,2013-01-04 20:50:00,
2013-01-04 15:55:00,36.9,23.9,29.83,WNW,291,8.0,25.0,59,0.00,,,0.00,Wunderground v.1.15,2013-01-04 20:55:00,
2013-01-04 16:00:00,36.9,23.9,29.83,WNW,288,6.0,25.0,59,0.00,,,0.00,Wunderground v.1.15,2013-01-04 21:00:00,
2013-01-04 16:05:00,36.9,23.9,29.83,WNW,286,7.0,25.0,59,0.00,,,0.00,Wunderground v.1.15,2013-01-04 21:05:00,
2013-01-04 16:10:00,36.8,23.8,29.83,West,269,6.0,25.0,59,0.00,,,0.00,Wunderground v.1.15,2013-01-04 21:10:00,
2013-01-04 16:15:00,36.7,23.7,29.83,NNW,329,7.0,25.0,59,0.00,,,0.00,Wunderground v.1.15,2013-01-04 21:15:00,
2013-01-04 16:20:00,36.6,24.0,29.83,WNW,297,7.0,25.0,60,0.00,,,0.00,Wunderground v.1.15,2013-01-04 21:20:00,
2013-01-04 16:25:00,36.5,23.9,29.83,NW,315,5.0,25.0,60,0.00,,,0.00,Wunderground v.1.15,2013-01-04 21:25:00,
2013-01-04 16:30:00,36.5,23.9,29.83,NW,306,6.0,25.0,60,0.00,,,0.00,Wunderground v.1.15,2013-01-04 21:30:00,
2013-01-04 16:35:00,36.6,24.0,29.83,West,265,7.0,25.0,60,0.00,,,0.00,Wunderground v.1.15,2013-01-04 21:35:00,
2013-01-04 16:40:00,36.6,24.0,29.83,WNW,286,7.0,7.0,60,0.00,,,0.00,Wunderground v.1.15,2013-01-04 21:40:00,
2013-01-04 16:45:00,36.6,24.0,29.83,WNW,297,6.0,25.0,60,0.00,,,0.00,Wunderground v.1.15,2013-01-04 21:45:00,
2013-01-04 16:55:00,36.4,24.2,29.83,NW,314,5.0,25.0,61,0.00,,,0.00,Wunderground v.1.15,2013-01-04 21:55:00,
2013-01-04 17:00:00,36.4,24.2,29.83,WNW,287,5.0,25.0,61,0.00,,,0.00,Wunderground v.1.15,2013-01-04 22:00:00,
2013-01-04 17:05:00,36.5,24.3,29.83,WNW,285,5.0,25.0,61,0.00,,,0.00,Wunderground v.1.15,2013-01-04 22:05:00,
2013-01-04 17:10:00,36.5,24.3,29.83,WSW,251,6.0,25.0,61,0.00,,,0.00,Wunderground v.1.15,2013-01-04 22:10:00,
2013-01-04 17:15:00,36.5,24.3,29.83,WNW,293,6.0,25.0,61,0.00,,,0.00,Wunderground v.1.15,2013-01-04 22:15:00,
2013-01-04 17:20:00,36.5,24.3,29.83,West,265,6.0,25.0,61,0.00,,,0.00,Wunderground v.1.15,2013-01-04 22:20:00,
2013-01-04 17:25:00,36.4,24.2,29.83,WNW,291,5.0,25.0,61,0.00,,,0.00,Wunderground v.1.15,2013-01-04 22:25:00,
2013-01-04 17:30:00,36.4,24.2,29.83,NW,325,5.0,25.0,61,0.00,,,0.00,Wunderground v.1.15,2013-01-04 22:30:00,
2013-01-04 17:35:00,36.4,24.2,29.83,WNW,282,5.0,25.0,61,0.00,,,0.00,Wunderground v.1.15,2013-01-04 22:35:00,
2013-01-04 17:40:00,36.5,24.3,29.83,West,271,5.0,25.0,61,0.00,,,0.00,Wunderground v.1.15,2013-01-04 22:40:00,
2013-01-04 17:45:00,36.5,23.9,29.83,NW,316,6.0,25.0,60,0.00,,,0.00,Wunderground v.1.15,2013-01-04 22:45:00,
2013-01-04 17:50:00,36.4,24.2,29.83,WNW,289,6.0,6.0,61,0.00,,,0.00,Wunderground v.1.15,2013-01-04 22:50:00,
2013-01-04 17:55:00,36.4,24.2,29.83,WNW,296,5.0,25.0,61,0.00,,,0.00,Wunderground v.1.15,2013-01-04 22:55:00,
2013-01-04 18:00:00,36.5,23.9,29.84,WNW,287,6.0,6.0,60,0.00,,,0.00,Wunderground v.1.15,2013-01-04 23:00:00,
2013-01-04 18:05:00,36.4,24.2,29.84,WNW,284,5.0,7.0,61,0.00,,,0.00,Wunderground v.1.15,2013-01-04 23:05:00,
2013-01-04 18:10:00,36.4,23.8,29.84,WSW,257,5.0,25.0,60,0.00,,,0.00,Wunderground v.1.15,2013-01-04 23:10:00,
2013-01-04 18:15:00,36.3,24.1,29.84,WNW,299,6.0,25.0,61,0.00,,,0.00,Wunderground v.1.15,2013-01-04 23:15:00,
2013-01-04 18:20:00,36.2,24.0,29.84,West,277,5.0,5.0,61,0.00,,,0.00,Wunderground v.1.15,2013-01-04 23:20:00,
2013-01-04 18:25:00,36.4,24.2,29.84,WNW,286,5.0,7.0,61,0.00,,,0.00,Wunderground v.1.15,2013-01-04 23:25:00,
2013-01-04 18:30:00,36.4,23.8,29.84,NW,318,6.0,6.0,60,0.00,,,0.00,Wunderground v.1.15,2013-01-04 23:30:00,
2013-01-04 18:40:00,36.3,24.1,29.84,WNW,295,5.0,25.0,61,0.00,,,0.00,Wunderground v.1.15,2013-01-04 23:40:00,
2013-01-04 18:45:00,36.2,23.6,29.84,NW,305,6.0,25.0,60,0.00,,,0.00,Wunderground v.1.15,2013-01-04 23:45:00,
2013-01-04 18:50:00,36.0,23.8,29.84,West,275,6.0,25.0,61,0.00,,,0.00,Wunderground v.1.15,2013-01-04 23:50:00,
2013-01-04 18:55:00,36.1,23.9,29.84,West,281,5.0,25.0,61,0.00,,,0.00,Wunderground v.1.15,2013-01-04 23:55:00,
2013-01-04 19:00:00,36.0,23.8,29.84,WNW,302,7.0,7.0,61,0.00,,,0.00,Wunderground v.1.15,2013-01-05 00:00:00,
2013-01-04 19:05:00,35.8,23.7,29.85,NW,325,6.0,25.0,61,0.00,,,0.00,Wunderground v.1.15,2013-01-05 00:05:00,
2013-01-04 19:10:00,35.6,23.9,29.85,NW,311,4.0,25.0,62,0.00,,,0.00,Wunderground v.1.15,2013-01-05 00:10:00,
2013-01-04 19:15:00,35.5,23.8,29.85,WNW,303,5.0,25.0,62,0.00,,,0.00,Wunderground v.1.15,2013-01-05 00:15:00,
2013-01-04 19:20:00,35.4,23.7,29.85,NW,308,5.0,25.0,62,0.00,,,0.00,Wunderground v.1.15,2013-01-05 00:20:00,
2013-01-04 19:25:00,35.3,24.0,29.85,WNW,292,4.0,25.0,63,0.00,,,0.00,Wunderground v.1.15,2013-01-05 00:25:00,
2013-01-04 19:30:00,35.3,23.6,29.85,WNW,292,4.0,25.0,62,0.00,,,0.00,Wunderground v.1.15,2013-01-05 00:30:00,
2013-01-04 19:40:00,35.2,23.9,29.85,WSW,246,5.0,5.0,63,0.00,,,0.00,Wunderground v.1.15,2013-01-05 00:40:00,
2013-01-04 19:45:00,35.1,23.8,29.85,West,274,5.0,25.0,63,0.00,,,0.00,Wunderground v.1.15,2013-01-05 00:45:00,
2013-01-04 19:50:00,34.9,23.6,29.85,WNW,291,4.0,4.0,63,0.00,,,0.00,Wunderground v.1.15,2013-01-05 00:50:00,
2013-01-04 19:55:00,34.7,23.4,29.85,WNW,302,4.0,25.0,63,0.00,,,0.00,Wunderground v.1.15,2013-01-05 00:55:00,
2013-01-04 20:00:00,34.6,23.3,29.85,WNW,296,4.0,4.0,63,0.00,,,0.00,Wunderground v.1.15,2013-01-05 01:00:00,
2013-01-04 20:05:00,34.5,23.6,29.85,NW,305,4.0,25.0,64,0.00,,,0.00,Wunderground v.1.15,2013-01-05 01:05:00,
2013-01-04 20:10:00,34.4,23.5,29.85,NW,309,4.0,25.0,64,0.00,,,0.00,Wunderground v.1.15,2013-01-05 01:10:00,
2013-01-04 20:15:00,34.4,23.5,29.85,WNW,290,4.0,25.0,64,0.00,,,0.00,Wunderground v.1.15,2013-01-05 01:15:00,
2013-01-04 20:20:00,34.4,23.5,29.85,WNW,285,4.0,25.0,64,0.00,,,0.00,Wunderground v.1.15,2013-01-05 01:20:00,
2013-01-04 20:25:00,34.3,23.4,29.85,NW,304,4.0,25.0,64,0.00,,,0.00,Wunderground v.1.15,2013-01-05 01:25:00,
2013-01-04 20:30:00,34.3,23.4,29.85,WNW,302,4.0,25.0,64,0.00,,,0.00,Wunderground v.1.15,2013-01-05 01:30:00,
2013-01-04 20:35:00,34.2,23.3,29.85,WNW,298,4.0,25.0,64,0.00,,,0.00,Wunderground v.1.15,2013-01-05 01:35:00,
2013-01-04 20:40:00,34.1,23.6,29.85,WNW,300,5.0,5.0,65,0.00,,,0.00,Wunderground v.1.15,2013-01-05 01:40:00,
2013-01-04 20:50:00,33.9,23.4,29.85,WNW,303,4.0,4.0,65,0.00,,,0.00,Wunderground v.1.15,2013-01-05 01:50:00,
2013-01-04 20:55:00,33.7,23.2,29.85,NW,305,4.0,25.0,65,0.00,,,0.00,Wunderground v.1.15,2013-01-05 01:55:00,
2013-01-04 21:00:00,33.6,23.1,29.85,WNW,294,5.0,25.0,65,0.00,,,0.00,Wunderground v.1.15,2013-01-05 02:00:00,
2013-01-04 21:05:00,33.6,23.1,29.85,WNW,290,5.0,25.0,65,0.00,,,0.00,Wunderground v.1.15,2013-01-05 02:05:00,
2013-01-04 21:10:00,33.5,23.0,29.85,NW,319,6.0,6.0,65,0.00,,,0.00,Wunderground v.1.15,2013-01-05 02:10:00,
2013-01-04 21:15:00,33.4,22.9,29.85,WNW,283,6.0,25.0,65,0.00,,,0.00,Wunderground v.1.15,2013-01-05 02:15:00,
2013-01-04 21:20:00,33.5,23.0,29.86,West,281,6.0,25.0,65,0.00,,,0.00,Wunderground v.1.15,2013-01-05 02:20:00,
2013-01-04 21:25:00,33.4,22.9,29.86,NNW,332,6.0,25.0,65,0.00,,,0.00,Wunderground v.1.15,2013-01-05 02:25:00,
2013-01-04 21:30:00,33.3,22.8,29.86,WNW,296,4.0,25.0,65,0.00,,,0.00,Wunderground v.1.15,2013-01-05 02:30:00,
2013-01-04 21:35:00,33.2,22.7,29.86,NW,321,4.0,25.0,65,0.00,,,0.00,Wunderground v.1.15,2013-01-05 02:35:00,
2013-01-04 21:40:00,33.2,22.7,29.86,West,262,5.0,25.0,65,0.00,,,0.00,Wunderground v.1.15,2013-01-05 02:40:00,
2013-01-04 21:45:00,33.2,22.7,29.86,WNW,302,6.0,25.0,65,0.00,,,0.00,Wunderground v.1.15,2013-01-05 02:45:00,
2013-01-04 21:50:00,33.1,22.6,29.86,WNW,284,6.0,6.0,65,0.00,,,0.00,Wunderground v.1.15,2013-01-05 02:50:00,
2013-01-04 21:55:00,33.1,22.6,29.86,WNW,285,5.0,25.0,65,0.00,,,0.00,Wunderground v.1.15,2013-01-05 02:55:00,
2013-01-04 22:00:00,33.0,22.5,29.86,West,277,4.0,25.0,65,0.00,,,0.00,Wunderground v.1.15,2013-01-05 03:00:00,
2013-01-04 22:05:00,33.0,22.5,29.86,WNW,291,5.0,25.0,65,0.00,,,0.00,Wunderground v.1.15,2013-01-05 03:05:00,
2013-01-04 22:10:00,32.9,22.4,29.86,NW,305,5.0,5.0,65,0.00,,,0.00,Wunderground v.1.15,2013-01-05 03:10:00,
2013-01-04 22:15:00,32.9,22.4,29.86,WNW,292,5.0,6.0,65,0.00,,,0.00,Wunderground v.1.15,2013-01-05 03:15:00,
2013-01-04 22:20:00,32.8,22.3,29.86,NW,313,5.0,5.0,65,0.00,,,0.00,Wunderground v.1.15,2013-01-05 03:20:00,
2013-01-04 22:25:00,32.9,22.4,29.86,WNW,284,6.0,6.0,65,0.00,,,0.00,Wunderground v.1.15,2013-01-05 03:25:00,
2013-01-04 22:30:00,33.0,22.5,29.87,WNW,283,7.0,7.0,65,0.00,,,0.00,Wunderground v.1.15,2013-01-05 03:30:00,
2013-01-04 22:35:00,33.0,22.5,29.86,WNW,292,6.0,25.0,65,0.00,,,0.00,Wunderground v.1.15,2013-01-05 03:35:00,
2013-01-04 22:40:00,32.9,22.4,29.86,WNW,291,5.0,5.0,65,0.00,,,0.00,Wunderground v.1.15,2013-01-05 03:40:00,
2013-01-04 22:45:00,32.9,22.4,29.86,WNW,287,4.0,6.0,65,0.00,,,0.00,Wunderground v.1.15,2013-01-05 03:45:00,
2013-01-04 22:50:00,33.0,22.5,29.86,West,266,5.0,25.0,65,0.00,,,0.00,Wunderground v.1.15,2013-01-05 03:50:00,
2013-01-04 22:55:00,32.9,22.0,29.86,WNW,286,6.0,25.0,64,0.00,,,0.00,Wunderground v.1.15,2013-01-05 03:55:00,
2013-01-04 23:00:00,32.9,22.4,29.86,West,279,5.0,25.0,65,0.00,,,0.00,Wunderground v.1.15,2013-01-05 04:00:00,
2013-01-04 23:05:00,33.0,22.5,29.86,NW,305,6.0,25.0,65,0.00,,,0.00,Wunderground v.1.15,2013-01-05 04:05:00,
2013-01-04 23:10:00,32.9,22.4,29.86,West,281,6.0,6.0,65,0.00,,,0.00,Wunderground v.1.15,2013-01-05 04:10:00,
2013-01-04 23:15:00,32.8,22.3,29.86,WNW,294,5.0,25.0,65,0.00,,,0.00,Wunderground v.1.15,2013-01-05 04:15:00,
2013-01-04 23:20:00,32.8,22.3,29.86,NW,317,6.0,6.0,65,0.00,,,0.00,Wunderground v.1.15,2013-01-05 04:20:00,
2013-01-04 23:25:00,32.8,22.3,29.86,WNW,302,7.0,7.0,65,0.00,,,0.00,Wunderground v.1.15,2013-01-05 04:25:00,
2013-01-04 23:30:00,32.7,22.2,29.85,WNW,286,6.0,6.0,65,0.00,,,0.00,Wunderground v.1.15,2013-01-05 04:30:00,
2013-01-04 23:35:00,32.5,22.0,29.86,West,281,6.0,25.0,65,0.00,,,0.00,Wunderground v.1.15,2013-01-05 04:35:00,
2013-01-04 23:40:00,32.5,22.0,29.85,NW,306,6.0,6.0,65,0.00,,,0.00,Wunderground v.1.15,2013-01-05 04:40:00,
2013-01-04 23:45:00,32.4,21.9,29.85,WNW,300,5.0,25.0,65,0.00,,,0.00,Wunderground v.1.15,2013-01-05 04:45:00,
2013-01-04 23:50:00,32.3,21.8,29.86,WNW,290,6.0,6.0,65,0.00,,,0.00,Wunderground v.1.15,2013-01-05 04:50:00,
2013-01-04 23:55:00,32.2,21.7,29.86,WNW,302,6.0,25.0,65,0.00,,,0.00,Wunderground v.1.15,2013-01-05 04:55:00,